TimeCST,TemperatureF,Dew PointF,Humidity,Sea Level PressureIn,VisibilityMPH,Wind Direction,Wind SpeedMPH,Gust SpeedMPH,PrecipitationIn,Events,Conditions,WindDirDegrees,DateUTC
12:56 AM,50.0,48.0,93,29.99,10.0,ESE,6.9,-,N/A,,Clear,120,2014-01-23 06:56:00
1:56 AM,52.0,51.1,97,29.98,10.0,SE,8.1,-,N/A,,Clear,130,2014-01-23 07:56:00
2:56 AM,55.0,54.0,96,29.97,10.0,ESE,8.1,-,N/A,,Clear,120,2014-01-23 08:56:00
3:56 AM,53.1,51.1,93,30.00,10.0,East,4.6,-,N/A,,Clear,100,2014-01-23 09:56:00
4:56 AM,52.0,51.1,97,30.00,10.0,ENE,6.9,-,N/A,,Clear,70,2014-01-23 10:56:00
5:56 AM,55.0,54.0,96,30.01,10.0,East,6.9,-,N/A,,Scattered Clouds,80,2014-01-23 11:56:00
6:32 AM,54.0,53.1,97,30.05,10.0,ENE,6.9,-,N/A,,Mostly Cloudy,70,2014-01-23 12:32:00
6:56 AM,54.0,53.1,97,30.04,10.0,East,6.9,-,N/A,,Mostly Cloudy,80,2014-01-23 12:56:00
7:56 AM,54.0,53.1,97,30.06,10.0,East,5.8,-,N/A,,Mostly Cloudy,90,2014-01-23 13:56:00
8:56 AM,62.1,59.0,90,30.10,10.0,ENE,4.6,-,N/A,,Mostly Cloudy,60,2014-01-23 14:56:00
9:56 AM,70.0,60.1,71,30.13,10.0,ESE,10.4,-,N/A,,Overcast,110,2014-01-23 15:56:00
10:56 AM,72.0,57.9,61,30.13,10.0,SE,16.1,-,N/A,,Overcast,130,2014-01-23 16:56:00
11:56 AM,73.9,59.0,59,30.14,10.0,SE,17.3,-,N/A,,Overcast,130,2014-01-23 17:56:00
12:56 PM,73.0,57.9,59,30.13,10.0,ESE,13.8,-,N/A,,Overcast,110,2014-01-23 18:56:00
1:56 PM,73.9,57.0,55,30.11,10.0,ESE,12.7,-,N/A,,Mostly Cloudy,120,2014-01-23 19:56:00
2:56 PM,73.0,57.9,59,30.12,10.0,East,11.5,-,N/A,,Overcast,90,2014-01-23 20:56:00
3:56 PM,72.0,59.0,64,30.15,10.0,East,12.7,-,N/A,,Overcast,80,2014-01-23 21:56:00
4:05 PM,66.0,55.9,70,30.18,10.0,North,19.6,31.1,N/A,,Overcast,10,2014-01-23 22:05:00
4:23 PM,57.0,48.9,74,30.20,10.0,North,20.7,31.1,0.00,Rain,Light Rain,360,2014-01-23 22:23:00
4:56 PM,51.1,46.0,83,30.24,5.0,North,20.7,35.7,0.02,Rain,Light Rain,360,2014-01-23 22:56:00
5:56 PM,46.0,41.0,83,30.31,7.0,North,21.9,35.7,0.00,Rain,Light Rain,360,2014-01-23 23:56:00
6:56 PM,44.1,39.0,82,30.35,8.0,North,23.0,33.4,0.00,Rain,Light Rain,10,2014-01-24 00:56:00
7:56 PM,43.0,37.9,82,30.40,10.0,NNE,25.3,32.2,0.00,,Overcast,20,2014-01-24 01:56:00
8:56 PM,42.1,36.0,79,30.45,10.0,NNE,18.4,28.8,N/A,,Overcast,20,2014-01-24 02:56:00
9:14 PM,42.1,36.0,79,30.46,10.0,North,20.7,35.7,0.00,Rain,Light Rain,10,2014-01-24 03:14:00
9:47 PM,39.9,36.0,86,30.49,10.0,North,18.4,25.3,0.00,,Overcast,10,2014-01-24 03:47:00
9:56 PM,41.0,37.0,86,30.49,10.0,North,16.1,26.5,0.00,,Overcast,10,2014-01-24 03:56:00
10:56 PM,39.9,35.1,83,30.52,10.0,North,25.3,33.4,N/A,,Overcast,10,2014-01-24 04:56:00
11:20 PM,39.9,35.1,83,30.54,10.0,North,17.3,31.1,0.00,Rain,Light Rain,10,2014-01-24 05:20:00
11:56 PM,39.0,35.1,86,30.56,10.0,North,17.3,26.5,0.00,Rain,Light Rain,360,2014-01-24 05:56:00